Location: Karlsruhe
(49.0131°N, 8.3874°E)
Time: 19:40:00
(UTC+01:00)

ISS - Pass Details

Date: 14 February 2018
Orbit: 402 x 407 km, 51.6° (Epoch: 24 February)

Event Time Altitude Azimuth Distance (km) Brightness Sun altitude
Rises 18:23:59 0° 282° (WNW) 2,320 1.4 -7.0°
Reaches altitude 10° 18:26:48 10° 256° (WSW) 1,456 0.8 -7.4°
Maximum altitude 18:28:33 14° 223° (SW) 1,248 -0.5 -7.7°
Drops below altitude 10° 18:30:17 10° 191° (S) 1,452 -0.7 -8.0°
Sets 18:33:06 0° 164° (SSE) 2,306 -0.1 -8.5°
